Fort Lewis, WA

11:04 PM PDT on July 25, 2017 (GMT -0700)
Gray Army Air Field

Weather History for KGRF - June, 2013

Change the Weather History Date:

Tuesday, June 4, 2013

  Actual Average Record
Temperature  
Mean Temperature 62 °F -  
Max Temperature 80 °F 66 °F 85 °F (2016)
Min Temperature 45 °F 47 °F 42 °F (2011)
Degree Days  
Heating Degree Days 3    
Growing Degree Days 12 (Base 50)    
Moisture  
Dew Point 48 °F    
Average Humidity 61    
Maximum Humidity 96    
Minimum Humidity 32    
Precipitation  
Precipitation 0.00 in - - ()
Sea Level Pressure  
Sea Level Pressure 30.10 in    
Wind  
Wind Speed 4 mph (North)    
Max Wind Speed 10 mph    
Max Gust Speed -    
Visibility 10 miles    
Events      
Averages and records for this station are not official NWS values.
T = Trace of Precipitation, MM = Missing Value Source: NWS Daily Summary

Daily Weather History Graph

Daily Weather History Graph

Search for Another Location

Airport or City:

Trip Planner

Search our weather history database for the weather conditions in past years. The results will help you decide how hot, cold, wet, or windy it might be!

Date:

Astronomy

Jun. 04, 2013 Rise Set
Actual Time 5:17 AM PDT 9:00 PM PDT
Civil Twilight 4:37 AM PDT 9:40 PM PDT
Nautical Twilight 3:45 AM PDT 10:32 PM PDT
Astronomical Twilight 2:31 AM PDT 11:47 PM PDT
Moon 3:03 AM PDT (6/4) 5:24 PM PDT (6/4)
Length of Visible Light 17h 02m
Length of Day
15h 43m
Waning Crescent, 13% of the Moon is Illuminated
Jun 4
Waning Crescent
Jun 8
New
Jun 16
First Quarter
Jun 23
Full
Jun 29
Last Quarter

Hourly Weather History & Observations

Time (PDT) Temp. Windchill Dew Point Humidity Pressure Visibility Wind Dir Wind Speed Gust Speed Precip Events Conditions
12:58 AM 53.8 °F - 48.2 °F 81% 30.12 in 10.0 mi SSW 1.2 mph - N/A   Clear
1:58 AM 49.5 °F - 46.2 °F 89% 30.12 in 10.0 mi South 2.3 mph - N/A   Clear
2:58 AM 48.9 °F - 46.2 °F 90% 30.13 in 10.0 mi SE 3.5 mph - N/A   Clear
3:58 AM 46.9 °F - 45.7 °F 95% 30.13 in 10.0 mi SE 4.6 mph - N/A   Clear
4:58 AM 47.8 °F - 46.2 °F 94% 30.13 in 10.0 mi Calm Calm - N/A   Clear
5:58 AM 45.0 °F 43.5 °F 43.9 °F 96% 30.13 in 10.0 mi SE 3.5 mph - N/A   Clear
6:58 AM 48.9 °F - 47.5 °F 95% 30.14 in 10.0 mi SE 2.3 mph - N/A   Clear
7:58 AM 54.5 °F - 49.1 °F 82% 30.14 in 10.0 mi Calm Calm - N/A   Clear
8:58 AM 59.5 °F - 50.4 °F 72% 30.14 in 10.0 mi NNE 5.8 mph - N/A   Clear
9:58 AM 63.5 °F - 50.5 °F 63% 30.14 in 10.0 mi NE 8.1 mph - N/A   Clear
10:58 AM 66.7 °F - 49.5 °F 54% 30.14 in 10.0 mi NNW 9.2 mph - N/A   Clear
11:58 AM 70.2 °F - 51.1 °F 51% 30.13 in 10.0 mi NW 5.8 mph - N/A   Clear
12:58 PM 71.8 °F - 50.9 °F 48% 30.11 in 10.0 mi NW 9.2 mph - N/A   Clear
1:58 PM 73.8 °F - 49.6 °F 43% 30.10 in 10.0 mi NNW 10.4 mph - N/A   Clear
2:58 PM 76.1 °F - 49.3 °F 39% 30.09 in 10.0 mi Variable 4.6 mph - N/A   Clear
3:58 PM 77.7 °F - 47.8 °F 35% 30.08 in 10.0 mi NNW 4.6 mph - N/A   Clear
4:58 PM 79.3 °F - 46.8 °F 32% 30.06 in 10.0 mi Variable 4.6 mph - N/A   Clear
5:58 PM 79.5 °F - 48.0 °F 33% 30.05 in 10.0 mi Variable 4.6 mph - N/A   Clear
6:58 PM 79.2 °F - 47.7 °F 33% 30.03 in 10.0 mi North 5.8 mph - N/A   Clear
7:58 PM 77.5 °F - 47.1 °F 34% 30.03 in 10.0 mi North 5.8 mph - N/A   Clear
8:58 PM 73.2 °F - 46.9 °F 39% 30.03 in 10.0 mi North 8.1 mph - N/A   Clear
9:58 PM 68.9 °F - 46.9 °F 45% 30.05 in 10.0 mi NW 3.5 mph - N/A   Clear
10:58 PM 66.4 °F - 49.5 °F 54% 30.05 in 10.0 mi West 3.5 mph - N/A   Clear
11:58 PM 60.4 °F - 50.2 °F 69% 30.06 in 10.0 mi South 2.3 mph - N/A   Clear